This is the latest recevied weather packets stored in our database for station/object N8WEL. If no packets are shown the sender has not sent any weather packets the latest 10 day(s).
| Time | Temp. | Humidity | Pressure | Rain* | Wind** | Luminosity | Snow |
|---|---|---|---|---|---|---|---|
| 1777825958 | 15° C | 38% | 1016.6 hPa | 0 mm | - | - | - |
| 1777825834 | 15° C | 41% | 1016.7 hPa | 0 mm | - | - | - |
| 1777825283 | 15° C | 39% | 1016.8 hPa | 0 mm | - | - | - |
| 1777825135 | 15° C | 41% | 1016.8 hPa | 0 mm | - | - | - |
| 1777824700 | 15° C | 41% | 1016.7 hPa | 0 mm | - | - | - |
| 1777824379 | 14.44° C | 44% | 1016.9 hPa | 0 mm | - | - | - |
| 1777824077 | 14.44° C | 43% | 1016.9 hPa | 0 mm | - | - | - |
| 1777823477 | 13.89° C | 45% | 1017 hPa | 0 mm | - | - | - |
| 1777823272 | 13.89° C | 42% | 1017 hPa | 0 mm | - | - | - |
| 1777822763 | 13.89° C | 45% | 1017 hPa | 0 mm | - | - | - |
| 1777822490 | 13.33° C | 45% | 1017 hPa | 0 mm | - | - | - |
| 1777822161 | 13.33° C | 45% | 1017.1 hPa | 0 mm | - | - | - |
| 1777821652 | 12.78° C | 47% | 1017.3 hPa | 0 mm | - | - | - |
| 1777821310 | 12.78° C | 46% | 1017.4 hPa | 0 mm | - | - | - |
| 1777821141 | 12.78° C | 47% | 1017.3 hPa | 0 mm | - | - | - |
| 1777820661 | 12.78° C | 47% | 1017.4 hPa | 0 mm | - | - | - |
| 1777820488 | 12.22° C | 48% | 1017.3 hPa | 0 mm | - | - | - |
| 1777820488 | 11.67° C | 48% | 1017.3 hPa | 0 mm | - | - | - |
| 1777820487 | 11.67° C | 48% | 1017.3 hPa | 0 mm | - | - | - |
| 1777820486 | 11.11° C | 49% | 1017.4 hPa | 0 mm | - | - | - |
| 1777820486 | 11.11° C | 47% | 1017.4 hPa | 0 mm | - | - | - |
| 1777817956 | 11.11° C | 49% | 1017.5 hPa | 0 mm | - | - | - |
| 1777817688 | 11.11° C | 47% | 1017.4 hPa | 0 mm | - | - | - |
| 1777817370 | 11.11° C | 48% | 1017.4 hPa | 0 mm | - | - | - |
| 1777817030 | 10.56° C | 48% | 1017.5 hPa | 0 mm | - | - | - |
* Rain latest hour (hover to see other rain measurements)
** Current wind speed in m/s (hover to see current wind gust speed)